SL-18 DEB

基本信息
目录编号:
22568
目录名称:
SL-18 DEB
国际标识:
1993-014D
轨道中心:
EARTH
物体状态:
在轨
发射日期:
1993-03-25 UTC
轨道信息
数据来源: 国际轨道数据
星历时间: 2026-07-14T05:02:26+0800
半长轴: 7118.887km
偏心率: 0.0146108
轨道倾角: 75.745°
近地点辐角: 79.906°
升交点赤经: 30.313°
平近点角: 343.725°
近地点: 636.737km
远地点: 844.763km
周期: 99.627分钟
每日圈数: 14.453886
详细信息
发射场:
PKMTR
轨道高度:
LEO
数据来源:
AOE Integration Group
参考系:
TEME
时间系统:
UTC
历元类型:
SGP4
2D轨道图
3D轨道图
轨道高度分析图
轨道倾角分析图
轨道综合分析图
查看轨道综合分析图